South Labrador Coast: Past 24 Hour Conditions

 

St. John's Int'l Airport

04:30 AM NDT 16 September 2014
This table is a summary of hourly weather conditions for the past 24 hours.
Date / Time
(NDT)
Wind(knots) Conditions Visibility(km) Pressure(kPa) Air tempC) Relative humidity(%) Dew pointC)
16 September 2014
4:30 W 9 Cloudy 13 101.2 10 100 10
3:30 W 12 Light Drizzle 4 101.2 10 99 10
2:30 WNW 14 Light Rain 3 101.2 10 99 10
1:30 NW 11 Light Drizzle 5 101.2 11 100 11
0:30 NW 10 Light Drizzle 2 101.2 11 100 11
15 September 2014
23:30 WNW 14 Light Drizzle 3 101.2 11 100 11
22:30 NW 8 Light Drizzle 2 101.3 12 100 12
21:30 NW 6 Light Drizzle 1 101.3 12 100 12
20:30 NNW 7 Light Drizzle 0.8 101.3 12 100 12
19:30 NNE 6 Light Drizzle 0.4 101.3 12 100 12
18:30 NNE 6 Light Drizzle 0.2 101.2 12 100 12
17:30 NE 8 Light Drizzle 0.2 101.2 13 100 13
16:30 NNE 8 Light Drizzle 0.4 101.3 13 100 13
15:30 ENE 11 Light Drizzle 0.4 101.3 13 100 13
14:30 ENE 13 gust 21 Light Rain 0.4 101.3 13 100 13
13:30 ENE 13 gust 19 Light Rain 0.8 101.4 13 100 13
12:30 E 13 gust 20 Light Rain 0.4 101.5 13 99 13
11:30 ENE 15 gust 24 Light Rain 1 101.5 12 99 12
10:30 ENE 21 gust 28 Light Rain 1 101.6 12 99 12
9:30 ENE 17 gust 24 Light Rain 1 101.7 12 99 12
8:30 ENE 15 gust 25 Light Rain 1 101.7 11 99 11
7:30 E 17 gust 22 Light Rain 1 101.7 11 99 11
6:30 E 19 gust 26 Light Rain 2 101.7 11 99 11
5:30 ESE 19 gust 25 Light Rain 2 101.8 11 99 11
4:30 ESE 16 gust 22 Light Rain 3 101.8 11 99 11
 
Map of Atlantic - Newfoundland marine weather areas Southwestern Grand Banks - 44138 Banquereau - 44139 Tail of the Bank - 44140 Nickerson Bank - 44251 Northeast Burgeo Bank - 44255 Blanc-Sablon Airport Cap Whittle Chevery Natashquan Airport Heath Point Miscou Island Grand Étang Ingonish Beach North Mountain St.Paul Island J.A. Douglas McCurdy Sydney Airport Charlottetown Airport East Point North Cape Argentia Bonavista Burgeo Cape Race Corner Brook Daniel's Harbour Englee Ferolle Point La Scie Port aux Basques Rocky Harbour Sagona Island St. Anthony Airport St. John's Int'l Airport St. Lawrence Stephenville Airport Twillingate Winterland Wreckhouse Cartwright Airport Mary's Harbour Grates Cove Pool's Island Marticot Island Long Pond Îles de la Madeleine Airport
Legend: buoyBuoy land stationLand Station